Regional Weather Roundup
Issued by NWS Cleveland, OH

Home | Current Version | Previous Version | Graphics & Text | Print | Product List | Glossary On
Versions: 1 2 3 4 5 6 7 8 9 10 11 12 13 14 15 16 17 18 19 20 21 22 23 24 25 26 27 28 29 30 31 32 33 34 35 36 37 38 39 40 41 42 43 44 45 46 47 48 49 50
000
ASUS41 KCLE 270110
RWRCLE
OHIO REGIONAL WEATHER ROUNDUP
NATIONAL WEATHER SERVICE CLEVELAND, OH
900 PM EDT THU MAR 26 2015

NOTE: "FAIR" INDICATES FEW OR NO CLOUDS BELOW 12,000 FEET WITH NO
SIGNIFICANT WEATHER AND/OR OBSTRUCTIONS TO VISIBILITY.

OHZ001>008-015>018-024>027-034-035-043-044-270200-
   NORTHWEST OHIO

CITY           SKY/WX    TMP DP  RH WIND       PRES   REMARKS
DEFIANCE       CLOUDY    37  23  56 NW12      29.97R
FINDLAY        CLOUDY    39  27  62 NW16      29.92R
TOLEDO EXPRESS CLOUDY    37  24  59 NW12      29.94R
TOLEDO EXEC    CLOUDY    39  24  55 NW14      29.94R
LIMA           MOCLDY    39  28  64 NW18G28   29.93R
$$

OHZ009>014-019>023-028>033-038-089-270200-
   NORTHEAST OHIO

CITY           SKY/WX    TMP DP  RH WIND       PRES   REMARKS
CLE-HOPKINS    CLOUDY    37  33  85 SW6       29.92R
CLE-LAKEFRONT  CLOUDY    37  33  85 SW7       29.89R
CUY CO. ARPT   CLOUDY    37  36  93 W8        29.89R
LORAIN-ELYRIA  CLOUDY    37  34  89 W5        29.90R
ASHTABULA      CLOUDY    34  32  92 W6        29.88S WCI  29
AKRON-CANTON   CLOUDY    37  33  85 W3        29.89R
WOOSTER        CLOUDY    37  34  89 W3        29.90R
MANSFIELD      CLOUDY    37  32  82 W5        29.90R
YOUNGSTOWN     DRIZZLE   35  33  92 NW5       29.87S FOG
$$

OHZ042-051>053-060>062-070>072-077>081-270200-
  SOUTHWEST OHIO

CITY           SKY/WX    TMP DP  RH WIND       PRES   REMARKS
CINC-COVINGTON CLOUDY    41  33  73 NW8       29.95S
CINC-LUNKEN    CLOUDY    42  35  76 NW5       29.97R
HAMILTON       MOCLDY    40  33  76 NW6       29.96R
DAYTON         CLOUDY    40  33  76 NW7       29.94S
WRIGHT-PAT AFB CLOUDY    40  33  75 W3        29.94R
DAYTON GENERAL CLOUDY    41  33  73 NW5       29.94R
WILMINGTON     CLOUDY    39  33  79 NW8       29.94R
$$

OHZ036-037-039>041-045>050-054>059-063>069-073>076-082>088-270200-
  CENTRAL AND SOUTHEAST OHIO

CITY           SKY/WX    TMP DP  RH WIND       PRES   REMARKS
COLUMBUS       CLOUDY    40  33  76 NW8       29.91R
OSU AIRPORT    CLOUDY    39  33  79 NW6       29.91S
BOLTON FIELD   CLOUDY   N/A N/A N/A W6        29.92S
RICKENBACK AFB CLOUDY    39  34  81 NW7       29.92R
NEWARK         CLOUDY    40  34  79 NW5       29.91R
MARION         CLOUDY    38  32  79 W3        29.91R
LANCASTER      CLOUDY    41  35  79 NW6       29.92R
ZANESVILLE     CLOUDY    40  34  79 NW7       29.91R
NEW PHILLY     LGT RAIN  41  34  76 NW6       29.91R
$$



USA.gov is the U.S. government's official web portal to all federal, state and local government web resources and services.